TimeMDT,TemperatureF,Dew PointF,Humidity,Sea Level PressureIn,VisibilityMPH,Wind Direction,Wind SpeedMPH,Gust SpeedMPH,PrecipitationIn,Events,Conditions,WindDirDegrees,DateUTC
12:53 AM,68.0,55.9,65,29.83,10.0,Calm,Calm,-,N/A,,Clear,0,2013-06-15 06:53:00
1:53 AM,66.0,54.0,65,29.84,10.0,Calm,Calm,-,N/A,,Clear,0,2013-06-15 07:53:00
2:53 AM,64.0,54.0,70,29.85,10.0,SSW,3.5,-,N/A,,Clear,210,2013-06-15 08:53:00
3:53 AM,60.1,54.0,80,29.87,10.0,Calm,Calm,-,N/A,,Clear,0,2013-06-15 09:53:00
4:53 AM,64.0,61.0,90,29.86,10.0,NNE,13.8,-,N/A,,Clear,20,2013-06-15 10:53:00
5:53 AM,64.0,61.0,90,29.87,10.0,NNE,11.5,-,N/A,,Clear,30,2013-06-15 11:53:00
6:53 AM,66.9,59.0,76,29.98,10.0,NE,18.4,-,N/A,,Clear,50,2013-06-15 12:53:00
7:53 AM,71.1,57.0,61,29.88,10.0,ENE,16.1,-,N/A,,Clear,70,2013-06-15 13:53:00
8:53 AM,73.9,59.0,59,29.90,10.0,ENE,15.0,19.6,N/A,,Clear,60,2013-06-15 14:53:00
9:53 AM,77.0,59.0,54,29.89,10.0,ENE,10.4,18.4,N/A,,Clear,70,2013-06-15 15:53:00
10:53 AM,81.0,59.0,47,29.89,10.0,East,10.4,-,N/A,,Mostly Cloudy,80,2013-06-15 16:53:00
11:53 AM,82.9,57.9,42,29.89,10.0,NNE,10.4,-,N/A,,Partly Cloudy,30,2013-06-15 17:53:00
12:53 PM,87.1,57.9,37,29.88,10.0,North,10.4,-,N/A,,Scattered Clouds,10,2013-06-15 18:53:00
1:53 PM,86.0,57.0,37,29.88,10.0,NNE,8.1,-,N/A,,Partly Cloudy,20,2013-06-15 19:53:00
2:53 PM,84.9,57.0,38,29.87,10.0,NNE,10.4,18.4,N/A,,Scattered Clouds,20,2013-06-15 20:53:00
3:53 PM,87.1,57.9,37,29.85,10.0,ENE,17.3,24.2,N/A,,Clear,60,2013-06-15 21:53:00
4:53 PM,84.9,59.0,41,29.84,10.0,NNE,15.0,-,N/A,,Mostly Cloudy,30,2013-06-15 22:53:00
5:53 PM,82.9,59.0,44,29.84,10.0,NE,16.1,-,N/A,,Mostly Cloudy,50,2013-06-15 23:53:00
6:53 PM,80.1,59.0,48,29.88,10.0,ENE,10.4,-,N/A,,Clear,60,2013-06-16 00:53:00
7:53 PM,77.0,59.0,54,29.89,10.0,ENE,8.1,-,N/A,,Clear,60,2013-06-16 01:53:00
8:53 PM,75.0,59.0,57,29.92,10.0,ENE,9.2,-,N/A,,Clear,60,2013-06-16 02:53:00
9:53 PM,73.9,59.0,59,29.94,10.0,East,6.9,-,N/A,,Clear,90,2013-06-16 03:53:00
10:53 PM,70.0,59.0,68,29.89,10.0,ENE,11.5,-,N/A,,Clear,60,2013-06-16 04:53:00
11:53 PM,69.1,60.1,73,29.93,10.0,ESE,11.5,-,N/A,,Clear,110,2013-06-16 05:53:00